Change the Weather History Date:

Tuesday, September 25, 2012

  Actual Average (KMIE) Record (KMIE)
Temperature  
Mean Temperature 56 °F 62 °F  
Max Temperature 64 °F 73 °F 86 °F (1999)
Min Temperature 49 °F 50 °F 35 °F (1989)
Degree Days  
Heating Degree Days 8 5  
Month to date heating degree days 60  
Since 1 July heating degree days 70  
Cooling Degree Days 0 2  
Month to date cooling degree days 97  
Year to date cooling degree days 931  
Growing Degree Days 6 (Base 50)    
Moisture  
Dew Point 49 °F    
Average Humidity 74    
Maximum Humidity 95    
Minimum Humidity 57    
Precipitation  
Precipitation 0.30 in 0.09 in 1.70 in (2005)
Month to date precipitation 2.51  
Year to date precipitation 30.42  
Sea Level Pressure  
Sea Level Pressure 29.96 in    
Wind  
Wind Speed 7 mph (SSW)    
Max Wind Speed 14 mph    
Max Gust Speed 22 mph    
Visibility 8 miles    
Events Rain    
T = Trace of Precipitation, MM = Missing Value Source: NWS Daily Summary

Daily Weather History Graph

Daily Weather History Graph

Search for Another Location

Airport or City:

Trip Planner

Search our weather history database for the weather conditions in past years. The results will help you decide how hot, cold, wet, or windy it might be!

Date:

Astronomy

Sep. 25, 2012 Rise Set
Actual Time 7:33 AM EDT 7:34 PM EDT
Civil Twilight 7:06 AM EDT 8:01 PM EDT
Nautical Twilight 6:34 AM EDT 8:32 PM EDT
Astronomical Twilight 6:02 AM EDT 9:05 PM EDT
Moon 4:59 PM EDT (9/25) 2:53 AM EDT (9/25)
Length of Visible Light 12h 54m
Length of Day
12h 00m
Waxing Gibbous, 80% of the Moon is Illuminated
Sep 25
Waxing Gibbous
Sep 29
Full
Oct 8
Last Quarter
Oct 15
New
Oct 21
First Quarter

Hourly Weather History & Observations

Time (EDT) Temp. Dew Point Humidity Pressure Visibility Wind Dir Wind Speed Gust Speed Precip Events Conditions
12:15 AM 49.5 °F 37.8 °F 64% 30.03 in 10.0 mi SSW 6.9 mph - N/A   Clear
12:55 AM 49.8 °F 38.3 °F 65% 30.02 in 7.0 mi SSW 4.6 mph - N/A   Clear
1:15 AM 50.0 °F 38.7 °F 65% 30.01 in 7.0 mi SSW 6.9 mph - N/A   Clear
1:35 AM 51.3 °F 38.8 °F 63% 30.01 in 10.0 mi SSW 6.9 mph - N/A   Clear
1:55 AM 51.6 °F 38.7 °F 61% 30.01 in 10.0 mi South 3.5 mph - N/A   Clear
2:15 AM 50.5 °F 39.0 °F 65% 30.01 in 10.0 mi South 4.6 mph - N/A   Clear
2:35 AM 50.5 °F 39.6 °F 66% 30.01 in 7.0 mi South 3.5 mph - N/A   Scattered Clouds
2:55 AM 50.4 °F 39.6 °F 66% 30.01 in 10.0 mi South 5.8 mph - N/A   Clear
3:15 AM 50.4 °F 39.6 °F 66% 30.02 in 10.0 mi Calm Calm - N/A   Scattered Clouds
3:35 AM 51.1 °F 39.4 °F 64% 30.01 in 10.0 mi South 3.5 mph - N/A   Scattered Clouds
3:55 AM 50.9 °F 40.8 °F 68% 29.99 in 10.0 mi South 4.6 mph - N/A   Mostly Cloudy
4:15 AM 51.8 °F 40.5 °F 65% 29.99 in 5.0 mi South 6.9 mph - N/A   Haze
4:35 AM 51.8 °F 40.6 °F 66% 30.00 in 10.0 mi Calm Calm - N/A   Mostly Cloudy
5:15 AM 50.5 °F 41.5 °F 71% 29.99 in 10.0 mi South 5.8 mph - N/A   Overcast
5:35 AM 52.0 °F 41.5 °F 68% 29.97 in 10.0 mi South 5.8 mph - N/A   Overcast
6:15 AM 52.0 °F 41.4 °F 67% 29.95 in 10.0 mi South 5.8 mph - N/A   Mostly Cloudy
6:35 AM 52.9 °F 41.9 °F 66% 29.95 in 7.0 mi South 6.9 mph - N/A   Overcast
6:55 AM 54.0 °F 42.3 °F 65% 29.95 in 10.0 mi South 9.2 mph - N/A   Overcast
7:15 AM 54.9 °F 42.3 °F 63% 29.94 in 7.0 mi South 10.4 mph - N/A   Overcast
7:35 AM 55.6 °F 42.3 °F 61% 29.96 in 10.0 mi SSW 8.1 mph - N/A   Overcast
7:55 AM 56.3 °F 42.1 °F 59% 29.98 in 7.0 mi SSW 11.5 mph - N/A   Overcast
8:15 AM 56.3 °F 42.3 °F 59% 29.98 in 10.0 mi SSW 10.4 mph 17.3 mph N/A   Overcast
8:35 AM 56.3 °F 42.6 °F 60% 29.97 in 7.0 mi SSW 11.5 mph - N/A   Overcast
8:55 AM 56.7 °F 43.0 °F 60% 29.96 in 10.0 mi South 9.2 mph - N/A   Scattered Clouds
9:15 AM 57.2 °F 43.3 °F 60% 29.96 in 7.0 mi SSW 10.4 mph - N/A   Scattered Clouds
9:35 AM 57.6 °F 43.7 °F 60% 29.96 in 7.0 mi SSW 8.1 mph - N/A   Scattered Clouds
9:55 AM 58.6 °F 44.4 °F 59% 29.97 in 10.0 mi SSW 9.2 mph - N/A   Scattered Clouds
10:15 AM 59.2 °F 44.4 °F 58% 29.98 in 10.0 mi SW 10.4 mph - N/A   Scattered Clouds
10:35 AM 59.7 °F 44.6 °F 57% 29.99 in 7.0 mi SW 12.7 mph 17.3 mph N/A   Scattered Clouds
11:15 AM 60.1 °F 46.2 °F 60% 29.98 in 10.0 mi SW 11.5 mph 17.3 mph N/A   Scattered Clouds
11:35 AM 60.1 °F 47.3 °F 63% 29.96 in 10.0 mi SSW 11.5 mph - N/A   Clear
11:55 AM 61.2 °F 48.7 °F 64% 29.95 in 10.0 mi South 9.2 mph - N/A   Scattered Clouds
12:15 PM 61.7 °F 49.8 °F 65% 29.96 in 7.0 mi SW 13.8 mph - N/A   Scattered Clouds
12:35 PM 60.1 °F 50.4 °F 70% 29.96 in 7.0 mi SSW 10.4 mph 21.9 mph N/A Rain Light Rain
1:15 PM 58.1 °F 52.3 °F 81% 29.96 in 10.0 mi SSW 5.8 mph - N/A   Overcast
1:35 PM 57.9 °F 53.6 °F 86% 29.96 in 1.0 mi Calm Calm - 0.07 in Rain Light Rain
1:55 PM 57.4 °F 55.2 °F 92% 29.95 in 0.8 mi Calm Calm - 0.25 in Rain Rain
2:15 PM 57.4 °F 55.8 °F 94% 29.95 in 1.5 mi Calm Calm - 0.04 in Rain Light Rain
2:35 PM 58.3 °F 56.8 °F 95% 29.95 in 7.0 mi SSW 6.9 mph - 0.05 in   Overcast
3:15 PM 64.6 °F 59.2 °F 83% 29.94 in 7.0 mi SSW 13.8 mph - N/A   Mostly Cloudy
3:35 PM 64.4 °F 58.3 °F 80% 29.94 in 7.0 mi SSW 13.8 mph - N/A   Overcast
3:55 PM 63.5 °F 57.7 °F 81% 29.94 in 7.0 mi SSW 11.5 mph 18.4 mph N/A   Overcast
4:15 PM 63.0 °F 57.4 °F 82% 29.93 in 10.0 mi SSW 13.8 mph - N/A   Overcast
4:35 PM 62.6 °F 57.4 °F 83% 29.94 in 7.0 mi SSW 11.5 mph 18.4 mph N/A   Overcast
4:55 PM 62.1 °F 57.6 °F 85% 29.93 in 7.0 mi South 12.7 mph - N/A   Overcast
5:15 PM 61.7 °F 57.6 °F 86% 29.94 in 5.0 mi SSW 12.7 mph - N/A   Overcast
5:35 PM 61.7 °F 57.6 °F 86% 29.94 in 5.0 mi SSW 9.2 mph - N/A   Overcast
5:55 PM 61.9 °F 57.7 °F 86% 29.94 in 5.0 mi SSW 10.4 mph - N/A   Overcast
6:15 PM 62.4 °F 58.1 °F 86% 29.94 in 7.0 mi SSW 9.2 mph - N/A   Overcast
6:35 PM 62.8 °F 58.1 °F 85% 29.94 in 7.0 mi SSW 8.1 mph - N/A   Overcast
7:15 PM 63.5 °F 58.3 °F 83% 29.93 in 7.0 mi SSW 8.1 mph - N/A   Mostly Cloudy
7:35 PM 63.1 °F 58.3 °F 84% 29.93 in 7.0 mi SSW 5.8 mph - N/A   Scattered Clouds
8:15 PM 61.5 °F 57.9 °F 88% 29.92 in 7.0 mi South 3.5 mph - N/A   Clear
8:35 PM 60.4 °F 57.9 °F 91% 29.93 in 5.0 mi Calm Calm - N/A   Mostly Cloudy
8:55 PM 61.0 °F 58.3 °F 91% 29.94 in 7.0 mi SSW 3.5 mph - N/A   Mostly Cloudy
9:15 PM 59.9 °F 57.6 °F 92% 29.94 in 5.0 mi South 4.6 mph - N/A   Scattered Clouds
9:35 PM 59.7 °F 57.9 °F 94% 29.93 in 7.0 mi SSE 3.5 mph - N/A   Mostly Cloudy
10:15 PM 60.6 °F 58.6 °F 93% 29.94 in 5.0 mi Calm Calm - N/A   Overcast
10:35 PM 60.4 °F 58.6 °F 94% 29.94 in 5.0 mi South 3.5 mph - N/A   Overcast
10:55 PM 60.4 °F 59.0 °F 95% 29.93 in 5.0 mi SSE 3.5 mph - N/A   Overcast
11:15 PM 60.8 °F 59.0 °F 94% 29.93 in 4.0 mi SSE 4.6 mph - N/A   Overcast